Gainesville, FL

5:47 AM EST on December 08, 2019 (GMT -0500)
Gainesville Regional

Weather History for KGNV - October, 2019

Change the Weather History Date:

Tuesday, October 29, 2019

  Actual Average Record
Temperature  
Mean Temperature 81 °F 67 °F  
Max Temperature 89 °F 78 °F 89 °F (1935)
Min Temperature 73 °F 56 °F 32 °F (2008)
Degree Days  
Heating Degree Days 0 2  
Month to date heating degree days 0 22  
Since 1 July heating degree days 0 22  
Cooling Degree Days 16 4  
Month to date cooling degree days 314 203  
Year to date cooling degree days 3330 2543  
Growing Degree Days 31 (Base 50)    
Moisture  
Dew Point 74 °F    
Average Humidity 78    
Maximum Humidity 100    
Minimum Humidity 56    
Precipitation  
Precipitation T in 0.07 in 1.16 in (1985)
Month to date precipitation 3.59 2.75  
Year to date precipitation 41.83 42.74  
Snow  
Snow 0.00 in 0.00 in 0.00 in ()
Month to date snowfall 0.0 0.0  
Since 1 July snowfall 0.0 0.0  
Since 1 September snowfall 0.0 0.0  
Snow Depth 0.00 in    
Sea Level Pressure  
Sea Level Pressure 30.10 in    
Wind  
Wind Speed 4 mph (ESE)    
Max Wind Speed 15 mph    
Max Gust Speed 19 mph    
Visibility 5 miles    
Events Fog , Rain    
T = Trace of Precipitation, MM = Missing Value Source: NWS Daily Summary

Daily Weather History Graph

Daily Weather History Graph

Search for Another Location

Airport or City:

Astronomy

Oct. 29, 2019 Rise Set
Actual Time 7:40 AM EDT 6:45 PM EDT
Civil Twilight 7:15 AM EDT 7:09 PM EDT
Nautical Twilight 6:47 AM EDT 7:37 PM EDT
Astronomical Twilight 6:19 AM EDT 8:05 PM EDT
Moon 9:08 AM EDT (10/29) 8:14 PM EDT (10/29)
Length of Visible Light 11h 53m
Length of Day
11h 04m
Waxing Crescent, 3% of the Moon is Illuminated
Oct 29
Waxing Crescent
Nov 4
First Quarter
Nov 12
Full
Nov 19
Last Quarter
Nov 26
New

Hourly Weather History & Observations

Time (EDT) Temp. Heat Index Dew Point Humidity Pressure Visibility Wind Dir Wind Speed Gust Speed Precip Events Conditions
12:08 AM 75.9 °F - 73.9 °F 94% 30.10 in 7.0 mi East 3.5 mph - N/A   Mostly Cloudy
12:21 AM 75.0 °F - 73.9 °F 96% 30.10 in 6.0 mi East 3.5 mph - N/A   Scattered Clouds
12:53 AM 75.0 °F - 73.9 °F 96% 30.09 in 4.0 mi Calm Calm - N/A   Mostly Cloudy
1:53 AM 75.0 °F - 73.9 °F 96% 30.08 in 6.0 mi East 3.5 mph - 0.00 in   Overcast
2:24 AM 75.0 °F - 73.9 °F 96% 30.09 in 4.0 mi Calm Calm - N/A   Mostly Cloudy
2:32 AM 75.0 °F - 73.9 °F 96% 30.09 in 4.0 mi Calm Calm - N/A   Mostly Cloudy
2:53 AM 75.0 °F - 73.9 °F 96% 30.07 in 2.0 mi Calm Calm - N/A   Overcast
3:01 AM 75.0 °F - 73.9 °F 96% 30.08 in 1.5 mi East 3.5 mph - N/A   Overcast
3:06 AM 75.0 °F - 73.9 °F 96% 30.08 in 3.0 mi East 3.5 mph - N/A   Overcast
3:53 AM 75.9 °F - 75.0 °F 97% 30.07 in 3.0 mi Calm Calm - N/A   Overcast
4:00 AM 75.9 °F - 73.9 °F 94% 30.08 in 2.5 mi Calm Calm - N/A   Overcast
4:11 AM 75.9 °F - 73.9 °F 94% 30.08 in 3.0 mi Calm Calm - N/A   Overcast
4:27 AM 75.0 °F - 73.9 °F 96% 30.07 in 2.0 mi East 3.5 mph - N/A   Mostly Cloudy
4:35 AM 75.0 °F - 73.9 °F 96% 30.07 in 1.0 mi Calm Calm - N/A   Mostly Cloudy
4:42 AM 75.0 °F - 73.9 °F 96% 30.07 in 0.5 mi Calm Calm - N/A Fog Fog
4:49 AM 75.2 °F - 73.4 °F 94% 30.07 in 0.2 mi Calm Calm - N/A Fog Fog
4:53 AM 75.0 °F - 73.0 °F 94% 30.06 in 0.2 mi Calm Calm - N/A Fog Fog
5:03 AM 75.0 °F - 73.9 °F 96% 30.07 in 0.8 mi Calm Calm - N/A   Mist
5:28 AM 75.0 °F - 73.9 °F 96% 30.08 in 0.2 mi ESE 3.5 mph - N/A Fog Fog
5:53 AM 75.0 °F - 73.9 °F 96% 30.08 in 0.5 mi SE 3.5 mph - N/A Fog Fog
6:33 AM 75.0 °F - 75.0 °F 100% 30.09 in 1.8 mi Calm Calm - N/A   Overcast
6:44 AM 75.9 °F - 75.0 °F 97% 30.09 in 3.0 mi ESE 3.5 mph - N/A   Overcast
6:53 AM 75.9 °F - 75.0 °F 97% 30.09 in 4.0 mi SE 3.5 mph - N/A   Overcast
7:22 AM 75.9 °F - 75.0 °F 97% 30.09 in 2.5 mi SE 5.8 mph - N/A   Overcast
7:53 AM 75.9 °F - 75.0 °F 97% 30.09 in 0.5 mi SSE 3.5 mph - N/A Fog Fog
8:08 AM 75.9 °F - 75.0 °F 97% 30.11 in 0.2 mi SSE 3.5 mph - N/A Fog Fog
8:35 AM 75.9 °F - 75.0 °F 97% 30.11 in 0.5 mi SE 4.6 mph - N/A Fog Fog
8:53 AM 75.9 °F - 75.0 °F 97% 30.12 in 0.5 mi Calm Calm - N/A Fog Fog
9:08 AM 75.9 °F - 75.0 °F 97% 30.13 in 2.0 mi SSE 4.6 mph - N/A   Overcast
9:15 AM 75.9 °F - 75.0 °F 97% 30.13 in 5.0 mi SE 5.8 mph - N/A   Overcast
9:32 AM 77.0 °F - 75.9 °F 96% 30.13 in 8.0 mi SE 4.6 mph - N/A   Overcast
9:53 AM 78.1 °F - 75.9 °F 93% 30.12 in 9.0 mi SE 5.8 mph - N/A   Overcast
10:14 AM 78.1 °F - 75.0 °F 90% 30.13 in 10.0 mi SE 8.1 mph - N/A   Scattered Clouds
10:53 AM 80.1 °F 85.1 °F 75.0 °F 85% 30.12 in 10.0 mi Variable 3.5 mph - N/A   Mostly Cloudy
11:19 AM 82.0 °F 88.6 °F 75.0 °F 79% 30.14 in 10.0 mi East 4.6 mph - N/A   Scattered Clouds
11:53 AM 82.9 °F 89.4 °F 73.9 °F 74% 30.13 in 10.0 mi ESE 6.9 mph - N/A   Partly Cloudy
12:53 PM 84.9 °F 91.4 °F 73.0 °F 67% 30.12 in 10.0 mi Variable 6.9 mph - N/A   Clear
1:53 PM 86.0 °F 92.2 °F 72.0 °F 63% 30.08 in 10.0 mi Variable 5.8 mph - N/A   Partly Cloudy
2:53 PM 88.0 °F 94.7 °F 72.0 °F 59% 30.06 in 10.0 mi SE 8.1 mph - N/A   Partly Cloudy
3:53 PM 89.1 °F 95.0 °F 71.1 °F 55% 30.06 in 10.0 mi South 6.9 mph - N/A   Clear
4:53 PM 86.0 °F 91.5 °F 71.1 °F 61% 30.06 in 10.0 mi SSE 5.8 mph - N/A   Clear
5:53 PM 84.9 °F 90.7 °F 72.0 °F 65% 30.06 in 10.0 mi Calm Calm - N/A   Clear
6:53 PM 81.0 °F 85.8 °F 73.0 °F 77% 30.07 in 10.0 mi Calm Calm - N/A   Partly Cloudy
7:53 PM 77.0 °F - 71.1 °F 82% 30.10 in 10.0 mi NNE 9.2 mph - N/A   Mostly Cloudy
8:08 PM 75.9 °F - 71.1 °F 85% 30.11 in 9.0 mi NNE 8.1 mph - 0.00 in Rain Light Rain
8:53 PM 75.0 °F - 71.1 °F 87% 30.11 in 10.0 mi NNE 6.9 mph - 0.00 in   Overcast
9:53 PM 73.9 °F - 71.1 °F 91% 30.12 in 10.0 mi NNE 4.6 mph - N/A   Mostly Cloudy
10:03 PM 73.9 °F - 71.1 °F 91% 30.14 in 10.0 mi Calm Calm - N/A   Scattered Clouds
10:53 PM 73.9 °F - 71.1 °F 91% 30.13 in 10.0 mi ENE 6.9 mph - N/A   Partly Cloudy
11:53 PM 73.9 °F - 71.1 °F 91% 30.13 in 10.0 mi ENE 4.6 mph - N/A   Mostly Cloudy